Retour au catalogue

STARLINK-11518

ActifCommunicationsVLEO
NORAD 62462·PAYLOAD·🇺🇸 United States

Lancé Dec 31, 2024 depuis Cape Canaveral Space Force Station

Loading…

Prochains Passages (prochaines 24 heures)

TLE

FraisSource: CelesTrak SupGP

Époque: Sep 15, 2026, 03:20 UTC

1 62462C 24254A   26258.13937500  .00074604  00000+0  57824-3 0  2585
2 62462  43.0004 161.4325 0001581 277.3131  39.3162 15.70851376    12

Suivez STARLINK-11518 en temps réel avec AllMySat

Download on the App Store